Location: Montclair
(37.8322°N, 122.2092°W)
Time: 06:32:51
(UTC+00:00)

Cosmos 1606 Rocket - Pass Details

Date: 14 December 2024
Orbit: 599 x 625 km, 82.5° (Epoch: 18 January)

Event Time Altitude Azimuth Distance (km) Brightness Sun altitude
Rises 01:34:39 0° 236° (SW) 2,834 9.0 -8.7°
Reaches altitude 10° 01:38:24 10° 270° (W) 1,939 7.4 -9.4°
Maximum altitude 01:39:49 11° 289° (WNW) 1,849 6.8 -9.6°
Drops below altitude 10° 01:41:15 10° 309° (NW) 1,946 6.5 -9.9°
Sets 01:45:03 0° 343° (NNW) 2,859 6.9 -10.6°
